Location: Arboyeti
(42.1122°N, 44.6017°E)
Time: 19:53:38
(UTC+00:00)

Cosmos 1833 Rocket - Pass Details

Date: 19 April 2021
Orbit: 831 x 841 km, 71.0° (Epoch: 18 May)

Event Time Altitude Azimuth Distance (km) Brightness Sun altitude
Rises 23:40:53 0° 327° (NNW) 3,403 6.0 -25.0°
Reaches altitude 10° 23:43:30 10° 319° (NW) 2,465 5.2 -24.6°
Enters shadow 23:46:37 28° 294° (WNW) 1,544 3.8 -24.2°
